Change the Weather History Date:

Monday, April 21, 2014

  Actual Average Record
Temperature  
Mean Temperature 62 °F -  
Max Temperature 70 °F 63 °F 84 °F (2009)
Min Temperature 57 °F 50 °F 46 °F (2001)
Degree Days  
Heating Degree Days 2    
Growing Degree Days 12 (Base 50)    
Moisture  
Dew Point 56 °F    
Average Humidity 81    
Maximum Humidity 93    
Minimum Humidity 68    
Precipitation  
Precipitation 0.00 in - - ()
Sea Level Pressure  
Sea Level Pressure 30.01 in    
Wind  
Wind Speed 3 mph (WSW)    
Max Wind Speed 12 mph    
Max Gust Speed 18 mph    
Visibility 8 miles    
Events      
Averages and records for this station are not official NWS values.
T = Trace of Precipitation, MM = Missing Value Source: NWS Daily Summary

Daily Weather History Graph

Daily Weather History Graph

Search for Another Location

Airport or City:

Trip Planner

Search our weather history database for the weather conditions in past years. The results will help you decide how hot, cold, wet, or windy it might be!

Date:

Astronomy

Apr. 21, 2014 Rise Set
Actual Time 6:11 AM PDT 7:24 PM PDT
Civil Twilight 5:46 AM PDT 7:49 PM PDT
Nautical Twilight 5:15 AM PDT 8:20 PM PDT
Astronomical Twilight 4:43 AM PDT 8:52 PM PDT
Moon 12:53 AM PDT (4/21) 11:47 AM PDT (4/21)
Length of Visible Light 14h 03m
Length of Day
13h 12m
Waning Gibbous, 56% of the Moon is Illuminated
Apr 21
Waning Gibbous
Apr 22
Last Quarter
Apr 28
New
May 6
First Quarter
May 14
Full

Hourly Weather History & Observations

Time (PDT) Temp. Dew Point Humidity Pressure Visibility Wind Dir Wind Speed Gust Speed Precip Events Conditions
12:32 AM 60.8 °F 55.4 °F 82% 30.05 in 9.0 mi Calm Calm - N/A   Scattered Clouds
12:41 AM 60.8 °F 55.4 °F 82% 30.05 in 9.0 mi Calm Calm - N/A   Mostly Cloudy
12:53 AM 60.1 °F 55.9 °F 86% 30.05 in 9.0 mi Calm Calm - N/A   Mostly Cloudy
1:53 AM 59.0 °F 55.9 °F 90% 30.04 in 8.0 mi Calm Calm - N/A   Overcast
2:53 AM 59.0 °F 55.9 °F 90% 30.03 in 8.0 mi Calm Calm - N/A   Overcast
3:53 AM 59.0 °F 55.9 °F 90% 30.01 in 7.0 mi Variable 3.5 mph - N/A   Overcast
4:12 AM 59.0 °F 55.4 °F 88% 30.02 in 7.0 mi Calm Calm - N/A   Overcast
4:53 AM 57.9 °F 55.9 °F 93% 30.01 in 5.0 mi Calm Calm - N/A   Overcast
5:53 AM 57.9 °F 55.9 °F 93% 30.02 in 5.0 mi West 4.6 mph - N/A   Overcast
6:53 AM 59.0 °F 55.9 °F 90% 30.03 in 4.0 mi Calm Calm - N/A   Overcast
7:53 AM 59.0 °F 55.0 °F 87% 30.03 in 5.0 mi East 4.6 mph - N/A   Overcast
8:29 AM 60.8 °F 55.4 °F 82% 30.04 in 4.0 mi Calm Calm - N/A   Overcast
8:53 AM 61.0 °F 55.9 °F 83% 30.04 in 5.0 mi Variable 3.5 mph - N/A   Haze
9:43 AM 62.6 °F 55.4 °F 77% 30.04 in 7.0 mi Calm Calm - N/A   Scattered Clouds
9:53 AM 64.0 °F 57.0 °F 78% 30.04 in 7.0 mi West 3.5 mph - N/A   Partly Cloudy
10:53 AM 68.0 °F 57.0 °F 68% 30.02 in 9.0 mi West 4.6 mph - N/A   Clear
11:53 AM 66.9 °F 57.0 °F 70% 30.02 in 9.0 mi WSW 6.9 mph - N/A   Clear
12:53 PM 64.9 °F 57.0 °F 75% 30.01 in 7.0 mi WSW 9.2 mph - N/A   Clear
1:33 PM 64.4 °F 57.2 °F 77% 30.02 in 8.0 mi West 11.5 mph 18.4 mph N/A   Scattered Clouds
1:42 PM 64.4 °F 57.2 °F 77% 30.02 in 9.0 mi WSW 10.4 mph 16.1 mph N/A   Mostly Cloudy
1:53 PM 64.0 °F 57.0 °F 78% 30.01 in 9.0 mi West 8.1 mph - N/A   Overcast
2:53 PM 64.9 °F 57.0 °F 75% 30.00 in 9.0 mi West 8.1 mph - N/A   Mostly Cloudy
3:01 PM 64.4 °F 57.2 °F 77% 30.00 in 9.0 mi West 8.1 mph - N/A   Mostly Cloudy
3:34 PM 64.4 °F 57.2 °F 77% 29.99 in 9.0 mi Calm Calm - N/A   Scattered Clouds
3:53 PM 66.0 °F 55.9 °F 70% 29.98 in 10.0 mi Variable 4.6 mph - N/A   Partly Cloudy
4:53 PM 66.0 °F 57.0 °F 73% 29.97 in 9.0 mi WSW 9.2 mph - N/A   Clear
5:53 PM 63.0 °F 55.9 °F 78% 29.97 in 8.0 mi WSW 8.1 mph - N/A   Clear
6:13 PM 62.6 °F 55.4 °F 77% 29.98 in 8.0 mi WSW 8.1 mph - N/A   Scattered Clouds
6:22 PM 62.6 °F 55.4 °F 77% 29.97 in 8.0 mi WSW 9.2 mph - N/A   Mostly Cloudy
6:53 PM 62.1 °F 55.9 °F 80% 29.97 in 8.0 mi West 5.8 mph - N/A   Overcast
7:53 PM 61.0 °F 55.9 °F 83% 29.98 in 9.0 mi SSE 4.6 mph - N/A   Overcast
8:01 PM 60.8 °F 55.4 °F 82% 29.98 in 9.0 mi South 3.5 mph - N/A   Overcast
8:53 PM 61.0 °F 55.0 °F 81% 29.98 in 9.0 mi SE 3.5 mph - N/A   Mostly Cloudy
9:05 PM 60.8 °F 55.4 °F 82% 29.99 in 9.0 mi Calm Calm - N/A   Scattered Clouds
9:16 PM 60.8 °F 55.4 °F 82% 29.99 in 9.0 mi SW 3.5 mph - N/A   Mostly Cloudy
9:53 PM 61.0 °F 55.0 °F 81% 29.99 in 9.0 mi SW 4.6 mph - N/A   Overcast
10:53 PM 60.1 °F 55.0 °F 83% 29.98 in 8.0 mi Calm Calm - N/A   Overcast
11:53 PM 60.1 °F 55.0 °F 83% 29.98 in 8.0 mi SSW 4.6 mph - N/A   Overcast